This is the latest recevied weather packets stored in our database for station/object N4MGC. If no packets are shown the sender has not sent any weather packets the latest 10 day(s).
| Time | Temp. | Humidity | Pressure | Rain* | Wind** | Luminosity | Snow |
|---|---|---|---|---|---|---|---|
| 1777931396 | 26.67° C | 40% | 1012.9 hPa | 0 mm | - | 393 W/m² | - |
| 1777931093 | 26.11° C | 41% | 1012.9 hPa | 0 mm | - | 378 W/m² | - |
| 1777930789 | 26.67° C | 42% | 1013.1 hPa | 0 mm | - | 382 W/m² | - |
| 1777930485 | 26.67° C | 42% | 1012.9 hPa | 0 mm | - | 402 W/m² | - |
| 1777930183 | 26.11° C | 42% | 1013 hPa | 0 mm | - | 418 W/m² | - |
| 1777929878 | 26.67° C | 43% | 1013.2 hPa | 0 mm | - | 379 W/m² | - |
| 1777929577 | 26.67° C | 42% | 1013.1 hPa | 0 mm | - | 430 W/m² | - |
| 1777929273 | 26.67° C | 41% | 1013.3 hPa | 0 mm | - | 439 W/m² | - |
| 1777928971 | 26.67° C | 40% | 1013.4 hPa | 0 mm | - | 497 W/m² | - |
| 1777928667 | 26.11° C | 41% | 1013.5 hPa | 0 mm | - | 497 W/m² | - |
| 1777928364 | 26.11° C | 41% | 1013.4 hPa | 0 mm | - | 519 W/m² | - |
| 1777928062 | 26.11° C | 42% | 1013.5 hPa | 0 mm | - | 508 W/m² | - |
| 1777927760 | 26.11° C | 43% | 1013.7 hPa | 0 mm | - | 416 W/m² | - |
| 1777927458 | 26.11° C | 44% | 1013.5 hPa | 0 mm | - | 453 W/m² | - |
| 1777927157 | 26.11° C | 43% | 1013.6 hPa | 0 mm | - | 571 W/m² | - |
| 1777926854 | 26.67° C | 43% | 1013.5 hPa | 0 mm | - | 566 W/m² | - |
| 1777926549 | 26.11° C | 44% | 1013.4 hPa | 0 mm | - | 537 W/m² | - |
| 1777926247 | 27.22° C | 41% | 1013.8 hPa | 0 mm | - | 591 W/m² | - |
| 1777925943 | 26.67° C | 48% | 1013.7 hPa | 0 mm | - | 587 W/m² | - |
| 1777925641 | 26.67° C | 42% | 1013.9 hPa | 0 mm | - | 604 W/m² | - |
| 1777925338 | 27.22° C | 42% | 1013.9 hPa | 0 mm | - | 575 W/m² | - |
| 1777925034 | 27.22° C | 43% | 1013.6 hPa | 0 mm | - | 606 W/m² | - |
| 1777924731 | 26.67° C | 46% | 1013.7 hPa | 0 mm | - | 605 W/m² | - |
| 1777924426 | 26.67° C | 44% | 1013.6 hPa | 0 mm | - | 643 W/m² | - |
| 1777924123 | 26.11° C | 46% | 1013.9 hPa | 0 mm | - | 671 W/m² | - |
* Rain latest hour (hover to see other rain measurements)
** Current wind speed in m/s (hover to see current wind gust speed)